User: anonymous   Login
Location: Lake Crest
(37.6062°N, 88.9176°W)
Time: 09:42:03
(UTC+00:00)
Language:

Cosmos 1500 - Orbit

View from above orbital plane
View from above orbital plane
View from above satellite
View from above satellite

Ground track
Ground track

The orbit data is extracted from the following two-line orbital elements,

1 14372U 83099A   20055.58320111 +.00000612 +00000-0 +27926-4 0  9998
2 14372 082.5126 091.8309 0013341 267.6163 208.3514 15.18645911986542
Epoch (UTC): 24 February 2020 13:59:48
Eccentricity: 0.0013341
inclination: 82.5126°
perigee height: 501 km
apogee height: 519 km
right ascension of ascending node: 91.8309°
argument of perigee: 267.6163°
revolutions per day: 15.18645911
mean anomaly at epoch: 208.3514°
orbit number at epoch: 98654

The dashed part of the orbit path shows where the satellite is in the earth's shadow,  

DLR